Regional Weather Roundup
Issued by NWS Wakefield, VA

Home | Current Version | Previous Version | Text Only | Print | Product List | Glossary On
Versions: 1 2 3 4 5 6 7 8 9 10 11 12 13 14 15 16 17 18 19 20 21 22 23 24 25 26 27
000
ASUS41 KAKQ 021215
RWRAKQ

REGIONAL WEATHER ROUNDUP
NATIONAL WEATHER SERVICE WAKEFIELD VA
800 AM EDT MON MAY 02 2016

Note: "fair" indicates few or no clouds below 12,000 feet with no
significant weather and/or obstructions to visibility. * = Denotes
station may not report precipitation (e.g., rain,snow,etc.),
thunder or fog.

VAZ042-051-052>054-056-021300-
NORTHERN VIRGINIA

CITY           SKY/WX    TMP DP  RH WIND       PRES   REMARKS
WASH NATIONAL  DRIZZLE   56  55  97 N9        29.99R FOG
DULLES         FOG       55  54  96 NW7       30.01R VSB 1/4
FORT BELVOIR   CLOUDY    57  55  94 N2        30.00R
QUANTICO       CLOUDY    58  56  93 NE8       29.99R FOG
FREDERICKSBRG* CLOUDY    58  58 100 SE5       29.95F FOG
STAFFORD*      FOG       57  56  97 N5        30.02R VSB 1
WARRENTON      FOG       57  53  86 N7        29.98R VSB 3/4
CULPEPER*      CLOUDY    58  58 100 N3        29.98R FOG
MANASSAS*      CLOUDY    55  55 100 N7        29.99R FOG
LEESBURG*      RAIN      55  55 100 S7        30.02R
WINCHESTER     CLOUDY    55  55 100 CALM      29.96F FOG
FRONT ROYAL*   CLOUDY    55  55 100 S5        29.96F
LURAY*         LGT RAIN  59  59 100 N7        29.98R
$$

VAZ048-049-060>072-079>083-021300-
CENTRAL AND SOUTH CENTRAL VIRGINIA

CITY           SKY/WX    TMP DP  RH WIND       PRES   REMARKS
RICHMOND       CLOUDY    65  64  97 W5        29.96S FOG
CHESTERFIELD*  CLOUDY    66  55  68 SW3       29.98R
PETERSBURG*    FAIR      68  68 100 SW3       29.98R
HANOVER        FOG       63  50  63 CALM      29.98R VSB 1
TAPPAHANNOCK*  FOG       60  60 100 CALM      29.97S VSB 1/4
QUINTON*       CLOUDY    65  65  99 MISG      29.96R
CHARLOTTSVILLE CLOUDY    62  60  93 S3        29.96R FOG
GORDONSVILLE*  CLOUDY    61  61 100 CALM      29.96R
ORANGE*        CLOUDY    61  61 100 CALM      29.98R
LOUISA*        FOG       64  63  94 SE3       29.94S VSB 1/4
BUMPASS*       CLOUDY    60  60 100 CALM      29.97R VSB 1/2
FARMVILLE*     FOG       65  65 100 CALM      29.96S VSB 1/2
CREWE*         PTSUNNY   67  67 100 CALM      29.96S
FORT PICKETT*  NOT AVBL
CHASE CITY*    PTSUNNY   67  65  95 CALM      29.99R
CLARKSVILLE*   CLOUDY    66  66 100 S7        29.98R
SOUTH HILL*    PTSUNNY   65  65  99 S8        30.04S
LAWRENCEVILLE* PTSUNNY   66  66  98 SW6       29.98S
EMPORIA*       FAIR      64  64 100 S5        30.00S
$$

VAZ088>098-021300-
SOUTHEAST VIRGINIA

CITY           SKY/WX    TMP DP  RH WIND       PRES   REMARKS
NORFOLK        CLOUDY    69  65  86 SW15G23   29.97R
VIRGINIA BEACH CLOUDY    72  65  78 SW14      29.96R
NORFOLK NAVAL  PTSUNNY   69  66  90 SW10      29.98S
WEST POINT*    CLOUDY    67  66  96 SW3       29.97R
SALUDA*        CLOUDY    66  66 100 CALM      29.96R
NEWPORT NEWS   PTSUNNY   69  66  90 SW10      29.97R
LANGLEY AFB    PTSUNNY   70  66  88 SW8       29.96R
FORT EUSTIS    CLOUDY    68  68 100 VRB5      29.95R
WILLIAMSBURG*  FAIR      70  66  88 SW6       29.98R
HR EXEC AP*    CLOUDY    70  66  88 SW9       30.00R
FRANKLIN*      CLOUDY    67  65  92 SW10      30.00R
US460-WAKEFLD  PTSUNNY   69  65  86 S7        29.98R
$$

VAZ020-022-025-037-045-021300-
WEST CENTRAL AND SOUTHWEST VIRGINIA

CITY           SKY/WX    TMP DP  RH WIND       PRES   REMARKS
STAUNTON*      CLOUDY    59  59 100 CALM      30.00R
WAYNESBORO*    FAIR      61  59  93 MISG      29.98R
HOT SPRINGS VA LGT RAIN  58  58 100 W17       30.04R VSB<1/4
LYNCHBURG      FAIR      60  60 100 CALM      29.99S
DANVILLE       CLOUDY    65  65 100 VRB5      29.99S
SOUTH BOSTON*  PTSUNNY   67  66  95 SW6       29.99R
MARTINSVILLE   CLOUDY    64  62  94 CALM      30.03R
ROANOKE        FAIR      63  61  93 CALM      30.01R
BLACKSBURG     FOG       58  58 100 NW3       30.07R VSB 1/4
DUBLIN*        FAIR      61  61 100 CALM      30.06R
MARION*        CLOUDY    66  62  88 W10G16    30.09R
HILLSVILLE*    FAIR      60  59  97 SW6       30.06R
RICHLANDS*     CLOUDY    63  46  54 SW6       30.06S
WISE*          CLOUDY    63  63 100 SW3       30.08R
ABINGDON*      CLOUDY    66  64  94 W7        30.06S
$$

MDZ021>025-VAZ099-100-021300-
SOUTHERN MARYLAND AND THE DELMARVA PENINSULA

CITY           SKY/WX    TMP DP  RH WIND       PRES   REMARKS
PATUXENT RIVER LGT RAIN  57  55  93 NE5       29.97R VSB 1/2
BAY BRIDGE APT NOT AVBL
LEONARDTOWN    CLOUDY    55  55 100 CALM      29.98S VSB 1/4
DOVER          CLOUDY    52  52 100 E9        29.97F FOG
GEORGETOWN     FOG       51  51 100 E6        29.99S VSB 3/4
EASTON         CLOUDY   N/A N/A N/A SE3       30.00F FOG
CAMBRIDGE      CLOUDY    52  52 100 E5        29.97S
SALISBURY      FOG       54  54 100 E5        29.98R VSB 3/4
OCEAN CITY     FOG       52  52 100 NE5       29.99R VSB 1/4
WALLOPS ISLAND FOG       55  54  96 E9        29.98R VSB 1/4
ACCOMACK*      CLOUDY    61  46  59 CALM      29.97R HAZE
$$

NCZ012>017-030>032-021300-
NORTH CENTRAL AND EASTERN NORTH CAROLINA

CITY           SKY/WX    TMP DP  RH WIND       PRES   REMARKS
ROANOKE RAPIDS FAIR      66  64  94 S8        30.01R
RALEIGH        CLOUDY    69  66  90 SW8       30.01S
ELIZABETH CITY CLOUDY    69  67  93 SW12      30.00R
AHOSKIE*       MOSUNNY   67  66  95 CALM      30.01R
EDENTON*       CLOUDY    70  70 100 SW14      30.01S
CURRITUCK*     CLOUDY    69  68  96 SW9       30.00R
KILL DEVIL HLS CLOUDY    70  69  97 SW7       30.00S
MANTEO         NOT AVBL
CAPE HATTERAS  MOSUNNY   69  68  96 SW7       30.04R
TARBORO*       CLOUDY    70  66  89 SW5       30.03R
GOLDSBORO      MOSUNNY   72  72 100 SW12      30.01R
WASHINGTON     CLOUDY    70  68  93 SW7       30.02S
GREENVILLE     PTSUNNY   70  68  94 SW7G16    30.04R
NEW BERN       PTSUNNY   71  68  90 SW7       30.04S
WILMINGTON     CLOUDY    72  70  93 SW9       30.04S
$$

VAZ048-021300-
ELSEWHERE

CITY           SKY/WX    TMP DP  RH WIND       PRES   REMARKS
HARRISBURG PA  LGT RAIN  52  50  93 SE7       29.97R VSB 3/4
BALTIMORE      DRZL/FOG  54  54 100 N3        30.00R VSB 3/4
ANNAPOLIS      CLOUDY    55  54  96 CALM      29.99R FOG
ANDREWS AFB    CLOUDY    55  55  99 N7        29.97S FOG
PHILADELPHIA   CLOUDY    49  45  86 E6        30.00F
HENDERSON NC   CLOUDY    67  67 100 SW9       30.00R
GREENSBORO     PTSUNNY   66  65  96 W7        30.01R
ROCKY MOUNT    CLOUDY    69  66  90 SW6       30.02R
$$

VAZ100-021300-
MARINE

STATION/POSITION TIME  TEMP    WIND        PRES    WAVE   SWELL
                       AIR SEA DIR/SP/G            HT/PER HT/PER
                 (UTC) (F)     (DEG/KT/KT) (MB)    (FT/S) (FT/S)
BRANDYWINE LGT   1100   50      80/ 11/ 12 1015.6R
CAPE MAY NJ      1100   50 56   80/  5/ 10 1015.4R
LEWES DE         1100   51 55   90/ 10/ 11 1015.2R
15NM E FENWICK I 1150   51 51              1015.2R   4/10
OCEAN-CITY-INLET 1100   52 54   80/  4/  6 1014.7R
WACHAPREAGUE VA  1100   62 59  220/  4/  7 1013.7R
THOMAS POINT MD  1200   54 57  110/  5/  6 1016.5R
GOOSES REEF MD   1200   56 57   80/  4/  6 1015.9R   0
COVE POINT MD    1100   55      60/  4/  5 1015.1R
SOLOMONS ISLAND  1100   57 59   60/  5/  5   N/A
BISHOPS HEAD MD  1100   57 58   60/  6/  9 1014.0R
PINEY POINT MD   1100           80/  4/  4   N/A
POTOMAC MD       1200   58 58   80/  6/  8 1013.4R   1
CAMBRIDGE MD     1100   54 60   70/  7/  9 1014.1R
LEWISETTA VA     1100   58 59   40/  3/  5 1014.0R
RAPPAHANNOCK LGT 1100          190/ 10/ 11 1014.5R
STINGRAY PT      1100   65 60  250/  8/ 10 1014.2R   1/ 2
YORK RVR RNG VA  1100   65     250/ 12/ 13 1013.3R
YORKTOWN VA      1100   67 62  230/  8/ 13 1013.6R
JAMESTOWN VA     1200   68 65  230/  8/ 12   N/A
DOMINION TERM VA 1100   66     220/  7/  8 1014.3R
KIPTOPEKE VA     1100      60  190/  9/ 10   N/A
CHES BAY BRIDGE  1100   67 60  190/ 14/ 17 1013.6F
CAPE HENRY VA    1100   68     210/  7/ 13   N/A
CHESAPEAKE LGHT  1100   63     210/ 21/ 21 1014.7F
WILLOUBY STN VA  1100   68     210/ 15/ 18 1014.7F
CAPE HENRY BUOY  1112      59                N/A     3/11   2/11
CAPE CHARLES BUO 1126      57                N/A     3/11   2/11
OFFSHORE WE BUOY 1121      54                N/A     4/11   3/11
64NM E OF VA BCH 1150   59 53  200/ 14/ 16 1015.4R   5/11   3/11
DUCK PIER NC     1100   69 66  210/ 15/ 19 1015.3R
44100 DUCK FRF   1124      58                N/A     3/11   2/11
44056 DUCK FRF   1111      58                N/A     3/10   2/11
OREGON INLET NC  1100   67 67  180/  9/ 10 1016.1R
HATTERAS NC      1100   70 68  210/  7/ 10 1016.7R
DIAMOND SHLS NC  1150   74 72  220/ 14/ 16 1017.4R   5/10   3/10
CAPE LOOKOUT NC  1200   71     210/ 10/ 14 1017.0R
$$
C1F1C2F2C3F3C4F4C5F5C6F6C7F7C8M1C9!



USA.gov is the U.S. government's official web portal to all federal, state and local government web resources and services.